User: anonymous   Login
Location: Bothwell
(42.3833°S, 147.0000°E)
Time: 21:04:55
(UTC+11:00)
Language:

XW-2C - Orbit

View from above orbital plane
View from above orbital plane
View from above satellite
View from above satellite

Ground track
Ground track

The orbit data is extracted from the following two-line orbital elements,

1 40906U 15049H   24054.09085592  .00020082  00000-0  58202-3 0  9993
2 40906  97.4876  68.4958 0009478   9.1821 350.9593 15.35545260466771
Epoch (UTC): 23 February 2024 02:10:49
Eccentricity: 0.0009478
inclination: 97.4876°
perigee height: 453 km
apogee height: 466 km
right ascension of ascending node: 68.4958°
argument of perigee: 9.1821°
revolutions per day: 15.35545260
mean anomaly at epoch: 350.9593°
orbit number at epoch: 46677

The dashed part of the orbit path shows where the satellite is in the earth's shadow,  

DLR